Location: Unspecified
(0.0000°N, 0.0000°E)
Time: 04:02:34
(UTC+00:00)

Vanguard 1 - All Passes

Search period start: 25 February 2018 00:00
Search period end: 07 March 2018 00:00
Orbit: 650 x 3833 km, 34.2° (Epoch: 24 February)

Date Brightness Start Highest point End Pass type
(mag) Time Alt. Az. Time Alt. Az. Time Alt. Az.
25 Feb - 01:42:37 10° SSW 01:44:29 11° S 01:46:32 10° S visible
25 Feb - 04:07:44 10° S 04:13:51 13° SSE 04:21:09 10° SE visible
25 Feb - 06:28:04 10° SSW 06:44:53 32° SSE 07:04:22 10° E daylight
25 Feb - 08:50:45 10° SW 09:13:55 73° SE 09:34:06 10° ENE daylight
25 Feb - 11:18:37 10° WSW 11:40:50 52° NW 11:56:07 10° NE daylight
25 Feb - 13:57:54 10° WNW 14:06:34 15° NNW 14:13:19 10° N daylight
25 Feb - 21:16:34 10° NW 21:20:50 51° NE 21:25:53 10° ESE night (unlit)
25 Feb - 23:37:49 10° WSW 23:41:45 20° SSW 23:47:05 10° SSE night (unlit)
26 Feb - 04:28:40 10° SSW 04:37:04 15° SSE 04:47:28 10° SE visible
26 Feb - 06:48:51 10° SSW 07:07:13 40° SE 07:28:01 10° E daylight
26 Feb - 09:12:07 10° SW 09:35:40 87° SE 09:55:34 10° NE daylight
26 Feb - 11:41:46 10° WSW 12:02:21 41° NW 12:16:40 10° NNE daylight
26 Feb - 14:26:07 10° NW 14:28:50 11° NNW 14:31:19 10° NNW daylight
26 Feb - 21:37:21 10° WNW 21:41:44 80° SW 21:47:10 10° SE night (unlit)
27 Feb - 00:00:44 10° SW 00:03:30 13° SSW 00:06:48 10° S night (unlit)
27 Feb - 04:49:19 10° SSW 05:00:02 19° SSE 05:13:42 10° ESE visible
27 Feb - 07:09:40 10° SW 07:29:18 50° SE 07:50:59 10° ENE daylight
27 Feb - 09:33:44 10° WSW 09:57:19 78° NW 10:16:45 10° NE daylight
27 Feb - 12:05:38 10° W 12:24:02 32° NW 12:37:05 10° NNE daylight
27 Feb - 19:39:35 10° N 19:42:36 16° NNE 19:45:24 10° ENE visible
27 Feb - 21:58:35 10° WNW 22:02:45 41° SSW 22:08:01 10° SE night (unlit)
28 Feb - 05:09:51 10° SSW 05:22:40 25° SSE 05:39:17 10° ESE visible
28 Feb - 07:30:34 10° SW 07:51:11 61° SE 08:13:23 10° ENE daylight
28 Feb - 09:55:42 10° WSW 10:18:57 65° NW 10:37:44 10° NE daylight
28 Feb - 12:30:21 10° W 12:45:59 24° NW 12:57:22 10° NNE daylight
28 Feb - 19:59:31 10° NNW 20:03:45 30° NE 20:07:40 10° E visible
28 Feb - 22:20:19 10° W 22:23:57 23° SSW 22:28:27 10° SSE night (unlit)
01 Mar - 05:30:23 10° SSW 05:45:00 31° SE 06:04:01 10° E visible
01 Mar - 07:51:36 10° SW 08:12:56 74° SE 08:35:20 10° ENE daylight
01 Mar - 10:18:07 10° WSW 10:40:37 52° NW 10:58:33 10° NE daylight
01 Mar - 12:56:02 10° WNW 13:08:14 18° NNW 13:17:32 10° N daylight
01 Mar - 20:20:04 10° NW 20:24:44 59° NE 20:29:12 10° ESE visible
01 Mar - 22:42:56 10° SW 22:45:22 14° SSW 22:48:09 10° S night (unlit)
02 Mar - 03:33:30 10° S 03:38:44 12° SSE 03:44:58 10° SE visible
02 Mar - 05:50:57 10° SSW 06:07:00 40° SE 06:27:55 10° E visible
02 Mar - 08:12:50 10° SW 08:34:39 88° SE 08:56:55 10° NE daylight
02 Mar - 10:41:05 10° W 11:02:25 42° NW 11:19:14 10° NNE daylight
02 Mar - 13:22:39 10° NW 13:30:50 14° NNW 13:37:29 10° N daylight
02 Mar - 18:22:11 10° N 18:24:49 13° NNE 18:27:07 10° NE daylight
02 Mar - 20:41:03 10° WNW 20:45:40 68° SW 20:50:15 10° SE visible
03 Mar - 03:53:07 10° S 04:01:21 17° SSE 04:12:00 10° ESE visible
03 Mar - 06:11:35 10° SW 06:28:47 50° SE 06:51:04 10° ENE daylight
03 Mar - 08:34:19 10° WSW 08:56:21 77° NW 09:18:14 10° NE daylight
03 Mar - 11:04:45 10° W 11:24:26 33° NW 11:39:51 10° NNE daylight
03 Mar - 13:50:23 10° NNW 13:53:42 11° NNW 13:56:43 10° N daylight
03 Mar - 18:41:47 10° NNW 18:46:18 22° NNE 18:49:54 10° E visible
03 Mar - 21:02:30 10° W 21:06:37 33° SW 21:10:52 10° SSE visible
04 Mar - 04:13:08 10° SSW 04:23:37 22° SSE 04:37:58 10° ESE visible
04 Mar - 06:32:20 10° SW 06:50:26 62° SE 07:13:38 10° ENE daylight
04 Mar - 08:56:09 10° WSW 09:18:06 64° NW 09:39:19 10° NE daylight
04 Mar - 11:29:13 10° W 11:46:43 26° NNW 12:00:26 10° NNE daylight
04 Mar - 19:02:09 10° NW 19:07:34 37° NNE 19:11:44 10° E visible
04 Mar - 21:24:36 10° WSW 21:27:41 18° SSW 21:30:56 10° SSE visible
05 Mar - 04:33:20 10° SSW 04:45:34 29° SE 05:02:57 10° E visible
05 Mar - 06:53:16 10° SW 07:12:02 75° SE 07:35:43 10° ENE daylight
05 Mar - 09:18:24 10° WSW 09:39:59 52° NW 10:00:16 10° NE daylight
05 Mar - 11:54:32 10° WNW 12:09:21 21° NNW 12:21:02 10° NNE daylight
05 Mar - 17:03:09 10° N 17:06:35 13° NNE 17:09:25 10° NE daylight
05 Mar - 19:22:56 10° NW 19:28:39 71° NE 19:33:02 10° ESE visible
06 Mar - 04:53:42 10° SSW 05:07:15 38° SE 05:27:03 10° E visible
06 Mar - 07:14:22 10° SW 07:33:39 90° SE 07:57:26 10° NE daylight
06 Mar - 09:41:11 10° W 10:02:03 42° NW 10:21:07 10° NNE daylight
06 Mar - 12:20:32 10° NW 12:32:19 17° NNW 12:41:46 10° NNE daylight
06 Mar - 17:22:52 10° NNW 17:28:24 19° NNE 17:32:26 10° ENE daylight
06 Mar - 19:44:10 10° WNW 19:49:34 59° SW 19:53:54 10° SE visible
